#timestamp,LO_Frequency,Hit,Temp,Hum 
1479672015.3,286047039.7,N,0.0,0.0
1479672035.1,286047042.3,N,0.0,0.0
1479672055.9,286047045.9,N,0.0,0.0
1479672075.7,286047041.5,N,0.0,0.0
1479672095.5,286047043.4,N,0.0,0.0
1479672115.4,286047045.8,N,0.0,0.0
1479672135.2,286047043.4,N,0.0,0.0
1479672155.0,286047044.1,N,0.0,0.0
1479672156.0,286047044.1,N,0.0,0.0
1479672175.8,286047045.9,N,0.0,0.0
1479672195.6,286047045.9,N,0.0,0.0
1479672215.5,286047042.3,N,0.0,0.0
1479672235.3,286047044.4,N,0.0,0.0
1479672255.1,286047045.5,N,0.0,0.0
1479672275.9,286047045.5,N,0.0,0.0
1479672295.7,286047044.1,N,0.0,0.0
1479672315.5,286047045.0,N,0.0,0.0
1479672335.4,286047043.3,N,0.0,0.0
1479672355.2,286047046.0,N,0.0,0.0
1479672375.1,286047047.4,N,0.0,0.0
1479672376.0,286047047.4,N,0.0,0.0
1479672395.8,286047049.1,N,0.0,0.0
1479672415.6,286047048.4,N,0.0,0.0
1479672435.5,286047050.5,N,0.0,0.0
1479672455.3,286047052.2,N,0.0,0.0
1479672475.2,286047049.5,N,0.0,0.0
1479672495.9,286047046.7,N,0.0,0.0
1479672515.7,286047046.2,N,0.0,0.0
1479672535.6,286047048.2,N,0.0,0.0
1479672555.4,286047048.0,N,0.0,0.0
1479672575.2,286047050.7,N,0.0,0.0
1479672595.1,286047049.7,N,0.0,0.0
1479672596.0,286047049.7,N,0.0,0.0
1479672615.8,286047051.6,N,0.0,0.0
1479672635.7,286047052.2,N,0.0,0.0
1479672655.5,286047052.0,N,0.0,0.0
1479672675.3,286047048.2,N,0.0,0.0
1479672695.2,286047052.4,N,0.0,0.0
1479672715.0,286047052.1,N,0.0,0.0
1479672715.9,286047052.1,N,0.0,0.0
1479672735.8,286047051.5,N,0.0,0.0
1479672755.6,286047052.4,N,0.0,0.0
1479672775.4,286047051.6,N,0.0,0.0
1479672795.3,286047052.3,N,0.0,0.0
1479672815.1,286047052.4,N,0.0,0.0
1479672816.0,286047052.4,N,0.0,0.0
1479672835.8,286047051.8,N,0.0,0.0
1479672855.7,286047053.5,N,0.0,0.0
1479672875.5,286047052.8,N,0.0,0.0
1479672895.4,286047055.2,N,0.0,0.0
1479672915.2,286047055.4,N,0.0,0.0
1479672935.0,286047054.2,N,0.0,0.0
1479672935.9,286047054.2,N,0.0,0.0
1479672955.8,286047054.8,N,0.0,0.0
1479672975.6,286047055.0,N,0.0,0.0
1479672995.4,286047055.0,N,0.0,0.0
1479673015.3,286047057.2,N,0.0,0.0
1479673035.1,286047054.5,N,0.0,0.0
1479673055.9,286047054.2,N,0.0,0.0
1479673075.7,286047054.7,N,0.0,0.0
1479673095.5,286047054.2,N,0.0,0.0
1479673115.4,286047055.1,N,0.0,0.0
1479673135.2,286047054.5,N,0.0,0.0
1479673155.0,286047054.3,N,0.0,0.0
1479673156.0,286047054.3,N,0.0,0.0
1479673175.8,286047056.6,N,0.0,0.0
1479673195.6,286047057.2,N,0.0,0.0
1479673215.5,286047057.2,N,0.0,0.0
1479673235.3,286047057.2,N,0.0,0.0
1479673255.1,286047055.9,N,0.0,0.0
1479673275.9,286047056.8,N,0.0,0.0
1479673295.7,286047054.6,N,0.0,0.0
1479673315.6,286047055.4,N,0.0,0.0
1479673335.4,286047053.2,N,0.0,0.0
1479673355.2,286047049.9,N,0.0,0.0
1479673375.1,286047048.5,N,0.0,0.0
1479673376.0,286047048.5,N,0.0,0.0
1479673395.8,286047042.9,N,0.0,0.0
1479673415.6,286047041.9,N,0.0,0.0
1479673435.5,286047039.8,N,0.0,0.0
1479673455.3,286047039.9,N,0.0,0.0
1479673475.2,286047040.2,N,0.0,0.0
1479673495.9,286047040.4,N,0.0,0.0
1479673515.7,286047039.0,N,0.0,0.0
1479673535.6,286047037.3,N,0.0,0.0
1479673555.4,286047036.2,N,0.0,0.0
1479673575.2,286047036.4,N,0.0,0.0
1479673595.1,286047035.9,N,0.0,0.0
1479673596.0,286047035.9,N,0.0,0.0
1479673615.8,286047035.5,N,0.0,0.0
1479673635.7,286047035.7,N,0.0,0.0
1479673655.5,286047037.6,N,0.0,0.0
1479673675.3,286047035.7,N,0.0,0.0
1479673695.2,286047035.9,N,0.0,0.0
1479673715.0,286047038.0,N,0.0,0.0
1479673715.9,286047038.0,N,0.0,0.0
1479673735.7,286047037.4,N,0.0,0.0
1479673755.6,286047035.6,N,0.0,0.0
1479673775.4,286047033.3,N,0.0,0.0
1479673795.3,286047033.6,N,0.0,0.0
1479673815.1,286047036.4,N,0.0,0.0
1479673835.8,286047033.6,N,0.0,0.0
1479673855.7,286047033.5,N,0.0,0.0
1479673875.5,286047032.2,N,0.0,0.0
1479673895.4,286047033.1,N,0.0,0.0
1479673915.2,286047031.3,N,0.0,0.0
1479673935.0,286047029.3,N,0.0,0.0
1479673935.9,286047029.3,N,0.0,0.0
1479673955.8,286047029.4,N,0.0,0.0
1479673975.6,286047029.8,N,0.0,0.0
1479673995.4,286047027.9,N,0.0,0.0
1479674015.3,286047028.3,N,0.0,0.0
1479674035.1,286047028.1,N,0.0,0.0
1479674055.9,286047029.8,N,0.0,0.0
1479674075.7,286047027.2,N,0.0,0.0
1479674095.5,286047025.8,N,0.0,0.0
1479674115.4,286047025.6,N,0.0,0.0
1479674135.2,286047028.2,N,0.0,0.0
1479674155.0,286047026.1,N,0.0,0.0
1479674155.9,286047026.1,N,0.0,0.0
1479674175.8,286047026.7,N,0.0,0.0
1479674195.6,286047024.4,N,0.0,0.0
1479674215.5,286047024.9,N,0.0,0.0
1479674235.3,286047023.6,N,0.0,0.0
1479674255.1,286047018.9,N,0.0,0.0
1479674275.9,286047018.1,N,0.0,0.0
1479674295.7,286047015.8,N,0.0,0.0
1479674315.5,286047014.2,N,0.0,0.0
1479674335.4,286047014.9,N,0.0,0.0
1479674355.2,286047015.4,N,0.0,0.0
1479674375.1,286047014.5,N,0.0,0.0
1479674376.0,286047014.5,N,0.0,0.0
1479674395.8,286047013.8,N,0.0,0.0
1479674415.6,286047011.1,N,0.0,0.0
1479674435.5,286047011.5,N,0.0,0.0
1479674455.3,286047011.3,N,0.0,0.0
1479674475.2,286047012.0,N,0.0,0.0
1479674495.9,286047010.2,N,0.0,0.0
1479674515.7,286047008.1,N,0.0,0.0
1479674535.6,286047008.3,N,0.0,0.0
1479674555.4,286047007.0,N,0.0,0.0
1479674575.2,286047005.4,N,0.0,0.0
1479674595.1,286047002.9,N,0.0,0.0
1479674596.0,286047002.9,N,0.0,0.0
1479674615.8,286047005.2,N,0.0,0.0
1479674635.7,286047005.9,N,0.0,0.0
1479674655.5,286047001.6,N,0.0,0.0
1479674675.3,286047000.3,N,0.0,0.0
1479674695.2,286047000.4,N,0.0,0.0
1479674715.0,286046998.9,N,0.0,0.0
1479674715.9,286046998.9,N,0.0,0.0
1479674735.7,286046996.9,N,0.0,0.0
1479674755.6,286046997.2,N,0.0,0.0
1479674775.4,286046998.8,N,0.0,0.0
1479674795.3,286046997.6,N,0.0,0.0
1479674815.1,286046995.6,N,0.0,0.0
1479674816.0,286046995.6,N,0.0,0.0
1479674835.8,286046996.1,N,0.0,0.0
1479674855.7,286046997.4,N,0.0,0.0
1479674875.5,286046999.3,N,0.0,0.0
1479674895.4,286046998.9,N,0.0,0.0
1479674915.2,286046999.0,N,0.0,0.0
1479674935.0,286047000.7,N,0.0,0.0
1479674935.9,286047000.7,N,0.0,0.0
1479674955.8,286046999.0,N,0.0,0.0
1479674975.6,286046999.4,N,0.0,0.0
1479674995.4,286046999.0,N,0.0,0.0
1479675015.3,286046998.2,N,0.0,0.0
1479675035.1,286046996.6,N,0.0,0.0
1479675055.9,286046997.0,N,0.0,0.0
1479675075.7,286046996.6,N,0.0,0.0
1479675095.5,286046999.2,N,0.0,0.0
1479675115.4,286046997.1,N,0.0,0.0
1479675135.2,286046997.2,N,0.0,0.0
1479675155.0,286046996.7,N,0.0,0.0
1479675155.9,286046996.7,N,0.0,0.0
1479675175.8,286046999.2,N,0.0,0.0
1479675195.6,286046997.6,N,0.0,0.0
1479675215.5,286046995.4,N,0.0,0.0
1479675235.3,286046995.5,N,0.0,0.0
1479675255.1,286046995.4,N,0.0,0.0
1479675275.9,286046993.4,N,0.0,0.0
1479675295.7,286046993.6,N,0.0,0.0
1479675315.5,286046993.8,N,0.0,0.0
1479675335.4,286046996.3,N,0.0,0.0
1479675355.2,286046993.3,N,0.0,0.0
1479675375.1,286046995.8,N,0.0,0.0
1479675376.0,286046995.8,N,0.0,0.0
1479675395.8,286046995.6,N,0.0,0.0
1479675415.6,286046995.1,N,0.0,0.0
1479675435.5,286046993.5,N,0.0,0.0
1479675455.3,286046993.5,N,0.0,0.0
1479675475.2,286046993.6,N,0.0,0.0
1479675495.9,286046996.3,N,0.0,0.0
1479675515.7,286046993.9,N,0.0,0.0
1479675535.6,286046994.6,N,0.0,0.0
1479675555.4,286046994.2,N,0.0,0.0
1479675575.2,286046993.5,N,0.0,0.0
1479675595.1,286046993.3,N,0.0,0.0
1479675596.0,286046993.3,N,0.0,0.0
